Wind_Speed
62 61 61 60 60 61 61 59 57 54 51 47 44 42 41 39 38 38 38 37 35 34 33 34 36 37 39 39 38 38 37 36 35 36 38 38 37 36 36 38 40 41 42 42 42 42 42 43 42 42 41 40 40 40 40 40 39 39 40 41 41 40 39 39 39 41 42 43 43 44 44 44 45 46 47 48 50 51 51 49 47 45 44 43 43 42
59 60 59 59 58 58 58 56 54 52 50 48 46 44 42 40 39 40 41 40 38 36 34 34 36 37 39 40 40 40 39 38 37 37 38 39 39 38 37 38 40 40 41 41 41 42 42 43 43 42 41 41 40 40 40 40 40 40 40 42 42 41 38 38 39 41 42 43 43 44 44 44 45 46 47 48 50 50 50 48 46 44 43 43 42 42
57 57 57 56 56 55 55 54 52 51 49 48 47 45 43 41 41 42 42 42 39 38 36 36 37 38 38 40 41 41 41 40 39 39 39 41 41 40 39 39 40 41 41 41 42 42 43 43 43 42 41 41 41 41 41 40 40 40 41 43 43 41 38 37 38 40 42 43 43 43 44 44 45 46 47 49 50 50 49 47 45 43 43 42 42 41
59 57 55 54 53 54 54 54 53 52 50 49 48 47 44 43 42 43 44 43 41 39 38 38 39 38 38 39 40 41 42 42 41 41 41 43 43 42 41 42 42 42 42 43 43 43 43 43 43 42 41 41 42 42 42 41 40 41 42 44 44 42 38 37 38 40 42 43 43 43 43 44 45 46 48 49 49 49 47 45 43 43 42 41 41 40
61 59 56 52 51 52 53 54 53 52 51 50 49 47 45 44 44 45 45 45 43 41 40 40 41 40 39 38 39 40 42 43 43 44 45 46 45 44 44 44 44 44 44 44 44 44 44 44 43 43 42 42 42 42 42 41 41 41 43 45 45 42 38 37 38 40 42 42 43 43 43 44 45 46 48 49 49 48 45 44 42 42 41 41 40 40
60 60 57 53 51 51 52 53 53 52 51 49 48 47 45 45 45 46 47 46 44 42 41 42 43 42 41 39 39 39 41 43 45 46 48 48 48 47 46 45 45 46 46 45 44 44 44 44 44 44 43 43 43 43 42 42 41 42 43 46 45 42 37 36 38 40 41 42 42 42 43 44 45 47 48 49 48 46 44 42 42 41 41 40 40 39
58 59 58 56 53 51 51 51 51 50 48 47 46 46 46 46 47 47 47 46 44 43 43 44 45 45 43 41 40 40 41 43 45 46 48 49 49 48 48 47 46 46 46 45 45 45 45 45 45 45 44 44 43 43 42 42 42 42 44 46 45 41 36 36 37 39 41 41 42 42 43 44 45 47 48 48 46 44 42 41 41 41 40 39 39 38
57 57 58 57 55 52 50 50 49 48 46 46 45 46 46 48 48 47 46 45 44 44 44 45 46 47 46 44 42 42 42 43 45 46 47 48 49 50 50 49 48 46 45 45 46 47 46 45 45 45 45 44 43 42 42 42 42 44 46 47 44 39 36 36 38 39 40 41 41 42 43 44 46 47 47 46 44 42 41 40 40 40 39 39 38 38
56 56 57 57 57 55 53 51 48 46 45 45 46 46 47 48 47 47 46 45 44 44 45 46 47 48 47 45 44 44 43 44 45 46 46 48 49 51 52 52 50 46 44 45 47 47 46 45 45 45 44 43 42 42 42 42 43 45 47 47 43 38 37 37 39 40 40 41 41 42 43 44 46 46 46 44 42 41 40 40 39 39 39 38 38 37
55 55 55 56 57 57 55 53 50 47 45 45 46 47 48 48 47 47 46 46 45 45 46 47 48 48 47 47 46 45 45 44 45 45 46 47 49 51 53 54 52 47 44 45 46 46 45 45 45 45 44 42 41 42 42 43 44 46 47 45 41 38 38 39 39 40 40 40 41 42 43 45 46 46 44 43 41 40 39 39 39 38 38 37 37 37
55 54 54 54 55 56 56 55 52 49 47 47 47 48 48 48 48 47 47 47 46 46 46 47 47 48 48 48 47 46 45 45 44 44 45 46 48 50 53 55 53 48 44 43 44 45 44 44 45 45 43 42 42 42 43 43 44 46 47 44 41 39 39 39 39 39 39 40 41 42 44 45 45 44 43 41 40 39 39 39 38 38 37 37 36 36
54 54 53 52 53 55 56 56 54 51 49 48 48 48 48 48 47 48 49 48 48 47 47 47 48 48 48 48 48 47 46 44 43 43 44 45 47 49 52 55 54 50 44 43 43 44 44 45 45 45 43 42 42 43 43 44 45 46 46 44 41 39 39 39 39 39 39 40 41 43 44 45 44 43 41 40 39 39 38 38 37 37 36 36 36 35
54 54 53 52 52 53 55 56 56 53 50 48 48 48 48 48 47 48 49 49 49 48 48 48 49 49 49 48 48 47 46 45 44 44 45 45 46 49 52 55 55 51 45 42 42 43 44 45 45 44 43 43 43 43 44 43 44 46 46 43 40 39 39 38 38 38 39 40 42 43 44 44 42 41 39 39 38 38 38 37 37 36 36 35 35 34
53 53 53 52 52 52 53 55 56 54 52 49 47 47 47 47 47 48 49 49 49 49 50 50 51 50 50 49 48 48 47 46 46 46 46 46 47 49 52 56 56 52 46 42 42 43 44 45 44 44 43 43 44 44 44 44 44 45 44 42 39 38 37 37 37 38 39 41 42 43 43 42 40 39 38 38 38 38 37 36 36 36 35 35 34 33
52 53 53 53 52 52 52 54 55 55 54 51 48 46 46 46 47 47 47 48 48 49 50 52 52 52 52 51 50 49 49 49 48 48 48 47 48 49 52 55 54 51 46 44 45 46 46 44 43 43 43 44 45 46 45 45 45 44 42 40 38 37 36 36 37 38 39 41 42 42 41 40 39 38 37 37 37 37 36 36 35 35 35 34 33 32
52 52 52 52 52 52 52 53 54 54 53 51 49 47 46 47 47 47 47 47 48 48 50 51 52 52 52 51 51 50 50 51 51 50 50 49 49 50 51 52 51 48 45 45 47 48 46 43 42 42 44 46 48 47 46 45 44 42 40 38 36 35 35 36 37 38 40 41 41 41 40 38 37 37 37 36 36 36 35 35 35 34 34 33 32 31
53 52 52 52 52 52 52 53 54 55 54 52 50 49 48 48 49 49 49 49 50 51 52 52 53 52 51 50 49 49 50 50 51 51 51 51 50 50 50 50 48 46 45 46 47 46 43 41 41 43 46 48 48 46 44 42 41 39 38 36 35 34 34 35 37 38 40 41 40 39 38 37 36 36 36 36 35 35 34 34 34 34 33 32 31 30
53 52 52 52 52 51 51 52 54 55 55 53 51 49 49 49 50 50 51 52 52 53 53 53 53 53 52 51 50 49 49 49 50 50 51 51 51 50 49 48 47 45 45 46 45 43 40 40 42 45 47 47 45 42 40 39 38 37 36 34 34 33 34 35 37 39 40 39 39 37 36 36 35 35 35 35 34 34 34 33 33 33 32 31 30 29
53 53 52 52 52 51 51 52 53 53 54 53 52 50 50 50 50 51 51 52 52 53 53 53 53 53 53 53 53 52 51 50 49 49 50 50 50 48 47 47 46 45 45 44 42 40 39 41 43 45 46 43 40 38 37 36 35 35 34 33 33 33 34 36 37 38 39 38 37 36 35 35 35 34 34 33 33 33 33 33 32 32 31 30 29 28
53 53 52 52 52 51 52 52 52 52 52 52 52 51 49 48 47 47 48 49 50 51 51 52 53 53 53 54 54 54 53 51 50 49 49 48 47 45 45 45 44 44 43 42 39 38 40 42 44 44 42 39 37 35 34 34 34 33 32 32 32 32 34 36 37 37 37 36 35 34 34 34 34 33 33 32 32 32 32 32 31 30 30 29 28 27
53 53 52 52 51 51 51 51 51 51 50 50 48 46 44 43 44 45 46 47 48 49 50 51 52 53 53 54 55 55 54 53 51 49 48 46 45 43 43 42 42 42 41 40 39 39 41 43 43 41 39 36 34 33 33 33 32 31 30 30 31 32 34 35 36 36 35 34 34 33 33 33 33 32 32 31 31 31 31 31 30 29 28 27 27 26
51 51 51 50 50 50 50 51 51 51 49 46 42 40 41 42 44 46 47 47 48 48 49 51 52 52 53 53 54 54 54 54 52 49 47 45 44 43 41 40 40 39 39 39 39 40 42 42 41 38 36 34 33 32 31 31 30 29 29 30 31 33 34 35 35 34 33 33 33 32 32 32 31 31 30 30 30 30 30 29 29 28 27 26 26 25
50 50 50 49 49 49 49 50 51 51 50 47 44 42 41 42 44 45 46 47 47 48 49 50 51 52 52 52 52 53 53 53 51 48 45 44 43 42 40 38 37 38 38 39 40 41 41 40 38 35 33 32 31 30 30 29 28 28 29 30 31 33 33 33 33 32 32 32 32 32 31 31 30 29 29 29 29 29 29 28 27 27 26 26 25 25
48 48 48 48 48 48 48 49 50 50 50 49 47 45 43 42 43 44 44 45 46 47 49 50 51 51 50 50 50 51 52 51 49 46 43 42 42 41 39 37 36 37 37 38 39 40 39 38 35 33 31 29 29 28 28 27 27 27 28 30 31 32 32 32 31 31 31 31 31 30 30 29 29 28 28 28 28 28 27 27 26 26 25 25 25 25
47 47 47 47 47 47 47 48 49 49 49 49 48 46 44 43 43 43 43 43 45 48 50 51 51 50 49 48 49 50 51 50 47 45 42 41 40 39 37 35 35 36 37 38 38 38 37 35 32 29 28 27 27 26 26 26 26 27 28 30 30 31 30 30 30 30 30 30 30 29 28 28 27 27 27 27 27 27 26 26 26 25 25 25 25 25
46 46 46 46 46 46 46 47 48 48 48 47 46 45 43 43 42 42 42 44 46 49 50 50 49 48 47 48 48 48 48 46 45 43 41 40 39 37 35 34 35 36 36 36 36 35 33 30 28 26 25 25 24 24 24 25 26 27 28 29 29 29 29 29 29 30 30 29 28 27 27 26 26 26 26 26 26 26 26 25 25 25 25 25 25 25
44 44 44 44 44 45 45 45 46 46 45 45 44 43 42 42 41 41 43 45 47 49 49 48 47 46 45 45 44 43 42 41 40 40 40 40 39 36 34 33 34 35 35 34 33 31 28 26 24 23 23 23 23 23 23 25 26 27 28 28 28 28 28 28 29 29 28 28 27 26 26 25 25 25 25 25 25 25 25 25 25 25 25 25 25 25
42 42 42 42 43 43 43 43 43 43 42 41 41 40 40 40 40 42 44 46 47 47 47 46 44 42 41 40 39 38 38 38 38 38 39 39 38 36 33 33 33 32 31 30 28 26 24 22 21 21 21 21 21 22 23 25 26 27 27 27 27 27 27 27 28 27 27 26 25 25 25 25 25 25 25 25 24 24 25 25 25 25 25 25 25 25
41 40 40 40 41 40 40 40 40 39 39 38 38 38 39 40 41 42 44 45 46 46 45 42 40 37 36 35 35 36 37 37 37 38 38 38 37 35 33 32 31 29 27 25 23 21 20 20 19 19 19 20 21 22 23 25 26 26 26 26 26 26 26 27 26 26 25 25 24 24 24 24 24 24 24 24 24 24 24 25 25 25 25 25 25 25
39 39 39 39 39 38 38 38 38 37 37 36 37 38 39 40 41 42 43 44 44 43 41 38 35 34 33 33 35 36 37 37 37 37 37 36 34 33 31 30 28 25 22 20 19 18 18 18 18 18 19 20 21 22 23 24 25 25 25 25 25 25 26 26 25 25 24 23 23 23 23 24 23 23 23 23 23 24 24 24 25 25 25 25 25 25
39 39 39 38 38 37 37 37 38 37 37 37 38 39 40 40 41 42 43 44 43 40 37 34 33 33 33 33 35 35 36 36 36 35 34 32 31 30 29 27 24 21 19 18 17 17 16 17 17 18 19 19 21 22 23 24 24 25 24 25 25 25 25 24 24 23 23 23 23 23 23 23 23 23 23 23 23 24 24 24 25 25 26 25 25 25
40 40 39 38 38 37 38 38 39 39 39 39 39 40 40 41 42 43 44 43 41 38 35 33 32 32 33 33 34 35 35 34 33 31 29 28 27 27 25 23 20 17 16 16 16 16 15 16 16 18 18 19 21 22 23 24 24 24 24 24 24 24 24 24 23 23 22 22 22 23 23 22 22 22 23 23 23 24 24 25 25 26 26 26 26 25
40 40 40 39 38 38 38 39 40 40 40 40 40 41 41 43 44 44 43 42 39 36 33 32 31 31 32 33 33 34 33 30 27 25 25 25 25 24 22 19 16 15 14 15 15 15 15 15 16 17 18 20 21 22 23 23 23 23 23 23 23 23 23 23 22 22 22 22 22 22 22 22 22 22 23 23 23 24 24 25 25 26 26 26 26 26
41 40 40 40 39 39 39 39 40 40 40 40 41 42 43 44 44 43 42 39 36 34 32 31 30 31 31 31 31 30 28 24 23 23 23 23 22 20 17 15 13 13 13 14 14 14 14 14 15 17 19 20 21 22 23 23 23 23 22 22 22 23 22 22 22 22 22 22 22 22 22 22 22 23 23 23 24 24 25 25 26 26 27 27 27 27
41 41 40 40 39 39 39 38 38 38 39 40 42 43 44 44 43 41 39 36 33 31 30 29 30 29 29 28 26 25 22 21 21 22 22 21 19 16 14 12 12 12 12 13 13 13 14 14 15 17 19 20 21 22 22 22 22 22 22 22 22 22 22 22 22 22 22 22 22 22 22 22 23 23 24 24 24 25 25 25 26 26 27 27 27 27
41 41 40 39 38 37 36 36 36 38 39 41 42 43 42 41 39 37 35 33 30 29 28 28 27 27 26 24 23 21 20 20 20 20 20 18 15 13 12 11 11 12 12 12 12 13 14 15 16 18 19 19 20 21 21 21 21 21 21 21 21 21 21 21 22 21 21 21 21 22 22 23 23 24 24 25 25 25 25 26 26 27 27 27 28 27
41 40 39 37 36 36 35 36 37 39 40 41 41 40 39 37 36 34 31 29 27 26 26 25 25 24 23 23 22 20 19 19 19 18 17 14 12 11 11 11 11 11 11 12 12 13 14 15 17 18 18 18 19 20 21 21 21 21 21 21 21 21 21 21 21 21 21 21 21 22 23 23 24 25 25 25 25 26 26 26 27 27 27 28 28 27
41 39 38 37 36 36 37 38 39 40 39 39 38 37 36 35 33 30 28 26 25 24 24 24 23 22 22 22 22 20 18 18 17 15 13 12 10 10 10 11 11 11 11 11 12 13 14 16 17 17 17 18 18 19 20 21 21 21 20 20 21 21 21 21 21 21 21 21 22 23 23 24 25 25 25 25 26 26 26 26 27 27 27 27 27 27
41 39 37 36 35 36 36 37 37 37 36 36 36 36 35 33 30 28 26 24 23 23 23 22 22 22 22 22 20 18 16 15 13 12 10 10 10 10 10 10 10 10 10 11 12 13 14 15 16 16 17 17 18 19 20 20 20 20 20 20 20 21 21 21 21 21 21 22 23 23 24 25 25 25 25 25 26 26 26 26 27 27 27 27 27 27
40 39 37 35 34 34 34 34 34 34 34 34 34 33 31 29 27 25 24 23 22 22 22 21 21 21 21 21 19 16 14 12 10 9 9 10 10 10 10 9 9 9 10 11 12 13 14 15 15 16 16 17 18 19 19 19 19 19 19 19 20 21 21 21 21 22 22 23 23 24 25 25 25 25 25 25 25 25 26 26 27 27 27 26 26 26
40 38 37 35 34 34 34 34 34 34 33 32 30 28 25 23 22 22 21 21 21 21 21 20 19 19 20 19 18 15 13 11 9 8 9 9 9 9 9 8 8 9 10 11 12 13 14 14 15 16 16 17 17 18 18 18 18 19 19 19 20 21 21 22 22 23 23 24 24 25 25 26 25 25 25 25 25 25 25 26 26 26 26 26 25 25
39 38 36 35 35 34 34 34 34 34 32 29 26 22 20 18 18 18 18 19 19 19 18 18 17 17 19 19 17 14 12 9 8 8 8 8 8 8 8 8 8 9 10 11 12 13 14 14 15 16 16 16 16 16 17 18 18 18 18 19 20 20 21 22 23 23 24 25 25 26 26 26 25 25 24 24 24 24 25 25 25 25 25 25 24 24
38 37 36 35 35 35 34 34 33 32 30 26 22 18 16 15 15 16 16 17 17 16 15 14 14 16 18 19 16 13 10 8 7 7 7 7 7 7 7 8 9 10 11 12 13 13 14 14 15 15 15 15 15 15 16 17 18 18 18 18 19 20 21 22 23 24 25 25 26 26 26 25 24 23 23 23 23 24 24 24 24 24 24 24 23 23
38 37 37 36 36 35 34 33 32 30 27 23 18 15 13 12 13 14 15 15 15 13 12 11 12 15 18 19 16 13 10 8 7 6 6 6 6 7 8 9 10 11 11 12 13 13 14 14 14 14 14 14 14 15 16 17 17 18 18 18 19 20 21 22 23 24 25 26 26 26 25 24 23 22 21 21 22 23 23 23 23 23 23 23 22 22
37 37 37 37 36 35 33 32 31 28 24 19 15 12 10 10 11 12 13 13 12 10 8 8 11 16 19 19 16 13 10 8 7 6 6 6 7 7 8 9 10 11 12 12 13 13 14 14 14 14 14 14 14 15 16 16 17 17 18 18 19 20 21 22 24 24 25 25 25 25 24 23 22 20 20 20 21 21 22 23 23 23 22 22 21 21
36 37 37 36 35 34 33 32 30 26 21 16 12 9 8 9 10 11 11 10 8 6 6 9 13 17 19 18 16 13 10 8 6 6 6 6 7 8 9 9 10 11 12 12 13 13 13 13 13 13 13 14 14 15 15 16 16 17 18 18 19 20 21 23 23 24 24 24 24 23 22 21 20 19 19 19 19 20 21 22 22 22 22 22 21 20
34 34 35 35 34 33 32 30 28 24 19 14 10 7 7 8 9 9 8 6 4 4 7 11 14 17 18 17 14 12 9 7 6 6 6 6 7 8 9 9 10 11 12 12 13 13 12 13 13 13 13 13 14 15 15 16 17 17 18 19 20 20 21 22 23 23 22 22 22 21 20 19 19 18 18 18 19 19 20 21 22 22 22 22 21 20
31 32 32 32 32 31 29 28 25 21 17 12 9 7 6 7 7 6 4 3 4 7 10 13 15 17 16 15 12 9 7 5 5 6 6 7 7 8 9 9 10 11 11 11 11 12 12 12 12 12 12 13 14 15 16 16 17 18 19 19 20 20 21 21 21 21 20 20 19 19 19 18 18 18 18 18 18 19 20 21 22 22 22 22 22 21
29 30 30 30 29 27 26 24 21 18 15 11 8 6 5 5 4 2 3 5 8 10 12 14 15 15 14 12 9 7 5 4 5 6 7 7 8 8 9 9 10 10 11 11 11 11 11 12 12 12 12 13 14 15 16 17 18 19 19 19 19 19 19 19 19 19 18 18 18 18 18 18 18 18 18 18 18 18 19 20 21 22 23 23 23 22
28 28 28 27 26 24 23 20 18 15 13 10 8 5 3 2 2 4 6 9 11 12 13 14 15 13 11 9 6 5 4 5 6 7 7 8 8 8 8 9 9 9 9 10 10 11 11 12 12 12 12 13 14 16 17 18 18 19 19 19 18 18 17 17 17 17 17 17 17 18 18 19 19 19 19 19 18 18 18 19 20 21 23 23 23 23
27 26 26 25 24 22 20 17 14 13 12 10 7 5 3 3 5 8 10 12 13 13 14 14 13 11 9 6 4 4 5 6 7 7 7 7 7 7 8 8 8 8 8 9 10 10 11 12 12 13 14 14 16 17 17 18 18 18 18 17 17 16 16 16 16 16 16 16 17 18 19 20 20 21 21 20 19 19 18 19 19 21 22 23 24 23
Wind_Direction
282 283 282 282 281 280 280 279 277 276 273 270 268 268 269 269 269 269 268 268 269 270 270 270 269 268 267 266 267 267 265 262 259 258 259 260 260 259 259 260 260 261 261 262 263 264 265 265 266 266 267 268 269 270 271 272 273 274 276 277 279 280 281 282 283 283 283 283 284 286 288 289 291 293 295 297 299 300 301 301 300 298 296 295 294 293
284 283 283 282 282 281 281 279 277 274 271 268 266 265 266 266 266 266 265 265 267 269 269 269 268 267 266 264 265 266 266 264 262 260 260 260 260 260 260 260 260 261 261 262 263 263 264 264 265 266 267 268 269 270 271 271 272 272 274 275 277 278 279 280 281 282 283 284 285 286 288 290 291 293 295 297 299 300 300 300 298 297 295 293 292 292
284 283 282 282 282 282 281 280 278 274 271 268 266 264 264 263 263 263 263 264 265 267 268 268 268 267 266 264 263 264 264 264 263 261 260 260 260 260 260 260 260 260 260 260 261 261 262 263 264 265 267 268 269 270 270 270 271 271 272 274 275 277 278 279 281 282 283 284 286 287 289 290 292 294 296 297 299 299 299 298 297 295 293 292 291 291
285 284 283 282 281 281 280 280 278 276 273 270 267 264 262 261 261 262 263 264 264 265 266 267 267 267 266 265 264 263 263 262 261 261 260 260 260 259 259 258 259 259 259 259 260 260 261 262 263 265 266 267 268 269 269 269 270 270 271 273 275 276 278 279 281 282 284 285 286 288 289 291 292 294 296 297 298 298 298 297 295 293 292 291 290 290
283 284 285 284 282 280 280 279 278 277 275 271 267 264 261 260 261 263 264 264 264 263 265 266 267 267 267 266 265 264 262 261 260 259 258 259 259 259 258 257 258 258 258 258 259 260 261 262 264 265 266 266 267 267 268 269 269 270 271 273 275 276 277 279 281 282 284 286 287 288 290 291 293 295 296 297 298 298 297 296 294 292 290 289 289 289
279 282 285 285 283 280 279 279 278 277 275 272 267 263 260 260 262 264 266 266 264 263 264 266 268 267 267 266 265 264 262 260 258 257 257 258 259 259 258 257 257 257 258 258 259 260 261 263 264 264 265 265 265 266 267 268 268 269 271 272 274 275 276 278 281 283 285 286 288 289 290 292 293 295 296 297 297 297 296 294 292 290 289 288 288 288
277 279 282 284 283 281 279 279 278 277 275 272 267 263 261 261 264 266 267 267 265 264 264 266 268 267 267 266 265 264 263 261 259 257 257 258 259 259 257 256 256 257 258 258 258 259 260 262 263 264 264 264 265 265 266 267 268 269 270 272 273 274 277 280 282 284 286 287 288 289 291 292 294 295 296 296 296 296 294 292 290 288 287 287 287 287
278 277 279 281 282 282 280 278 277 276 274 272 269 266 264 264 265 267 267 267 265 264 265 266 267 267 266 265 265 264 264 263 261 259 258 258 259 259 257 255 254 256 257 258 258 258 259 260 262 262 263 264 264 264 265 266 268 269 270 271 273 276 280 283 285 285 286 287 288 290 291 292 294 295 295 296 295 295 292 290 288 287 286 286 286 286
279 278 277 278 279 279 279 277 276 274 273 272 270 269 267 267 267 267 267 265 264 264 264 265 266 266 266 265 265 264 264 264 263 261 259 258 258 258 257 254 253 253 256 257 257 257 258 260 261 262 262 263 263 263 264 266 268 269 270 270 273 278 283 285 286 286 287 288 289 290 291 292 293 294 295 295 294 293 290 288 286 285 285 285 285 286
280 279 278 277 276 276 276 275 274 272 271 271 271 270 270 269 269 268 267 266 265 264 264 264 265 265 265 265 264 264 264 264 264 263 261 259 257 257 257 255 253 252 253 254 256 257 258 260 261 262 262 261 261 261 263 266 268 269 269 270 274 280 284 286 286 286 287 288 289 290 291 292 293 294 294 294 293 291 288 286 285 284 284 284 285 285
281 280 279 278 277 276 274 273 271 270 270 270 271 271 270 270 269 269 268 268 267 266 265 265 265 265 265 264 264 263 263 263 264 264 263 260 258 257 257 256 254 252 251 251 253 254 257 258 260 261 261 260 259 260 263 266 268 269 269 271 275 281 284 285 286 286 287 288 289 290 292 292 293 293 294 293 291 289 286 285 284 283 284 284 285 285
282 281 281 280 278 276 274 272 270 269 269 270 270 270 270 270 270 270 269 269 269 269 268 267 266 265 264 264 263 262 261 261 262 263 263 261 260 258 257 257 256 254 251 250 251 252 254 256 258 258 258 257 258 260 263 265 267 268 269 271 276 280 282 284 285 286 287 288 289 290 291 292 292 293 293 291 289 287 285 284 283 283 284 284 285 285
282 282 282 280 278 276 274 272 270 270 270 271 271 271 271 271 271 270 269 269 269 269 269 268 266 265 264 263 262 261 259 259 260 262 263 262 261 260 259 259 258 256 252 250 249 250 251 253 255 255 255 256 257 260 262 264 266 267 268 271 275 278 281 283 285 286 287 288 289 290 290 291 292 292 291 289 287 285 284 283 283 283 284 284 284 284
282 282 282 281 278 276 273 271 270 270 272 273 273 273 273 272 272 271 270 269 269 269 268 267 266 265 264 263 262 260 259 259 260 262 263 264 263 262 262 263 261 258 253 249 248 249 249 250 252 253 254 255 257 259 260 262 263 265 267 270 274 277 281 283 285 286 287 288 288 289 290 291 292 291 289 287 285 284 283 283 283 283 284 284 284 283
281 282 281 280 279 277 274 271 270 270 272 274 275 275 275 274 273 272 272 271 270 269 268 266 266 265 264 263 262 261 260 259 260 262 264 265 266 266 266 266 264 259 253 249 249 250 249 249 250 251 253 254 256 256 257 258 261 264 267 271 274 278 281 283 285 286 287 287 288 289 290 291 291 289 287 285 283 283 282 283 283 284 284 284 283 283
281 281 281 281 280 278 276 273 271 270 270 272 274 276 278 278 277 276 276 275 275 273 271 269 267 266 265 264 263 262 261 261 261 263 264 266 267 268 269 269 266 260 252 250 251 251 250 248 248 250 252 253 253 254 255 257 261 265 268 272 276 279 282 283 285 286 286 287 288 289 290 290 289 287 285 283 282 282 282 283 283 283 284 283 283 282
282 282 283 282 282 280 278 275 272 270 270 270 272 275 278 280 281 280 279 279 278 277 275 274 272 270 269 267 266 265 265 264 263 263 264 265 267 268 269 268 266 260 254 252 252 251 248 246 248 250 252 252 253 254 256 259 263 267 270 274 277 280 282 283 285 285 286 287 288 289 290 289 287 285 283 282 282 282 282 283 283 283 283 283 282 281
282 283 283 283 282 281 280 278 275 273 271 270 271 273 276 278 279 279 278 278 277 276 276 276 276 275 274 271 269 269 269 267 265 264 264 265 266 267 267 266 264 261 257 256 253 249 245 245 247 250 252 253 254 256 259 262 265 268 272 275 278 281 282 283 284 285 286 287 288 289 289 287 285 283 282 281 281 281 282 282 283 283 282 282 281 280
282 282 283 283 283 282 281 280 279 278 275 272 271 272 274 275 276 277 277 276 276 276 277 278 278 278 278 276 274 272 271 270 268 265 264 265 266 266 265 263 262 260 259 257 252 246 243 244 247 250 252 254 256 259 262 265 267 270 274 276 279 281 282 283 284 285 286 288 289 289 287 285 283 281 280 280 281 281 282 282 282 282 281 281 280 279
281 281 281 282 283 282 281 280 280 281 280 277 274 273 274 276 279 280 280 279 279 279 280 280 280 280 279 278 277 275 273 270 267 265 265 266 267 267 264 261 259 259 258 255 249 244 242 244 247 249 252 255 258 262 264 266 269 272 275 277 279 281 282 283 284 285 287 288 288 287 284 282 280 279 279 280 280 281 281 281 281 281 280 280 279 279
280 280 281 282 282 282 282 281 281 281 282 281 279 277 277 280 282 282 282 282 281 281 281 281 281 281 280 279 278 277 275 272 268 265 265 268 270 269 266 261 258 257 255 251 245 242 241 243 246 248 251 255 259 263 265 268 270 273 275 277 279 281 282 283 284 286 287 287 286 284 281 279 279 278 279 280 280 281 281 281 280 280 279 279 279 278
279 280 281 282 282 282 282 281 281 281 281 282 282 282 281 282 282 282 282 282 282 282 282 283 283 283 281 279 278 277 277 275 270 266 265 268 270 270 266 261 257 254 252 248 243 241 241 243 245 247 251 255 259 263 266 268 270 273 275 277 279 280 281 283 285 286 287 285 283 280 278 277 277 278 279 279 280 280 280 280 280 279 279 278 278 278
280 281 282 283 283 283 283 283 282 281 280 280 281 282 282 282 282 282 282 282 283 283 284 284 284 283 282 279 278 277 277 276 272 268 265 267 268 268 265 259 255 252 249 246 243 241 241 242 243 246 250 255 259 263 266 268 270 273 275 277 279 280 282 284 286 286 285 282 280 278 277 276 277 278 279 279 280 280 279 279 279 278 278 278 278 278
280 281 282 283 284 284 284 283 282 281 279 279 279 280 281 280 279 279 280 281 283 284 285 285 284 283 281 279 278 277 277 275 272 268 266 267 268 267 263 258 253 250 248 245 243 242 242 241 242 245 250 255 260 264 266 268 270 273 275 277 279 281 283 285 285 284 282 279 277 276 276 276 277 278 279 279 279 279 279 278 278 278 278 278 278 278
281 281 282 283 283 284 284 283 282 281 279 278 278 278 278 277 276 276 278 280 282 284 285 285 284 282 280 279 278 277 275 274 270 268 266 268 268 267 263 257 253 250 248 246 245 243 241 240 241 245 251 257 261 264 266 268 271 274 276 278 280 282 284 285 284 281 279 277 276 275 276 277 278 279 279 279 279 279 278 278 278 277 278 278 278 278
281 281 282 282 283 283 282 281 281 280 278 277 277 277 277 276 276 277 278 281 283 285 285 285 283 281 279 279 278 277 274 272 269 267 267 268 269 267 263 257 254 251 249 248 246 243 240 240 243 248 254 258 261 263 266 269 272 274 276 279 281 283 284 283 281 278 276 275 275 276 277 278 279 279 279 279 279 278 278 277 277 277 277 277 277 277
280 281 281 282 282 282 281 280 279 278 277 276 275 275 275 276 277 278 280 283 285 286 285 283 280 279 278 279 279 277 275 272 269 268 268 269 269 267 262 258 254 251 249 247 244 241 240 242 248 253 257 260 262 265 268 271 273 275 278 280 283 283 282 280 277 275 274 274 275 276 277 278 279 279 279 278 277 277 276 276 276 276 276 277 277 277
281 281 281 281 281 281 280 279 278 276 275 274 273 273 274 275 277 280 282 286 287 287 284 281 278 277 278 280 280 279 277 275 274 272 271 270 268 265 261 256 253 250 247 243 240 240 242 248 253 256 259 261 264 267 270 272 274 277 279 282 283 281 279 276 274 273 273 274 275 277 278 278 278 278 277 276 275 275 274 275 275 275 276 276 277 278
281 281 281 281 281 281 280 278 277 275 273 272 271 272 273 276 278 282 285 288 288 286 282 278 276 276 278 279 279 279 278 278 277 276 273 270 266 262 257 252 249 246 242 238 238 242 248 252 256 258 260 263 266 269 272 274 276 279 281 282 281 279 276 274 273 273 273 275 276 277 278 278 277 277 275 274 274 273 274 274 275 275 276 277 278 279
283 282 282 281 280 280 279 278 277 275 273 272 272 273 275 277 281 284 287 288 287 283 278 274 273 275 276 277 277 277 277 277 276 274 271 267 262 257 251 247 243 240 236 236 241 247 252 255 257 259 262 265 268 271 274 276 279 281 281 281 279 277 274 273 272 273 274 276 277 278 278 277 276 275 274 274 273 274 274 275 276 277 278 279 280 281
285 285 283 282 280 279 278 277 276 276 275 275 275 276 277 280 282 285 286 286 284 279 273 271 273 276 277 276 275 275 274 274 273 270 266 261 255 249 244 240 236 234 235 241 247 251 254 257 260 262 265 269 272 274 276 278 280 281 281 279 277 275 273 273 273 274 276 277 278 278 278 277 276 275 274 274 274 274 275 276 278 279 280 281 282 282
286 285 284 283 281 278 277 276 276 276 276 277 277 278 279 281 283 285 285 284 281 275 270 272 276 279 278 276 275 273 271 270 267 263 257 251 245 240 235 231 230 232 240 248 252 254 255 259 263 267 270 273 276 278 279 280 281 281 280 277 275 274 274 274 275 276 278 278 279 278 278 277 276 275 275 275 275 276 277 279 280 281 282 283 283 283
285 285 284 283 281 279 277 276 276 277 278 279 279 279 280 281 283 284 284 281 277 272 269 273 278 280 279 276 274 271 268 264 258 251 244 239 234 230 227 226 230 238 246 252 255 256 258 261 266 270 273 276 278 280 281 281 281 280 279 277 275 275 275 276 277 278 280 280 280 279 278 277 276 276 276 277 277 278 279 280 281 282 283 284 284 284
286 285 284 283 282 280 278 277 277 278 278 279 279 280 280 281 282 282 280 277 273 269 270 274 277 278 276 274 272 268 262 254 244 237 233 228 224 221 222 227 237 246 251 255 257 260 262 264 268 272 275 278 280 282 282 282 281 279 278 276 275 275 276 278 279 280 280 280 280 279 278 278 277 277 278 279 280 280 281 282 282 283 283 284 284 284
287 286 285 284 282 281 279 278 277 276 276 277 278 279 280 281 281 279 276 272 269 268 271 274 275 274 272 270 267 261 252 241 234 229 225 220 216 218 225 236 245 251 254 257 260 263 266 269 272 274 277 280 282 283 283 281 279 277 275 274 273 274 275 277 279 279 280 280 279 279 279 278 279 279 280 281 281 282 282 283 283 283 283 284 284 285
288 287 285 283 281 278 276 275 273 273 274 275 277 279 281 281 279 276 272 268 267 269 271 272 271 269 267 263 258 249 239 232 228 224 218 215 216 223 234 243 249 252 255 259 262 266 269 272 275 277 280 282 282 281 280 279 276 273 271 271 272 273 275 277 278 279 279 279 279 279 279 279 280 280 281 282 282 283 283 283 283 283 284 284 285 286
289 287 285 281 278 274 272 271 271 272 273 275 277 279 280 279 276 272 267 266 267 269 270 268 266 263 259 254 247 240 231 226 222 217 213 214 221 231 238 243 247 251 255 259 263 268 272 276 279 281 283 282 280 276 274 274 272 270 270 271 273 275 276 278 279 279 279 279 279 279 279 280 280 281 281 282 283 283 283 283 283 284 284 285 285 286
289 287 285 282 278 275 273 272 273 274 275 277 278 279 279 277 273 268 265 265 267 268 266 264 261 256 251 245 241 235 227 219 213 210 211 218 226 233 236 239 244 249 254 259 265 271 275 279 282 284 283 281 277 273 271 270 270 270 272 274 276 278 279 279 280 280 280 280 280 279 279 280 280 280 281 282 283 283 284 284 284 284 284 285 286 286
289 287 285 283 281 279 277 276 276 277 278 279 279 279 277 274 270 267 266 267 267 265 262 260 257 252 245 240 235 228 217 208 204 206 214 222 227 229 232 236 242 249 256 263 269 274 279 282 283 282 278 274 271 269 269 269 269 271 273 276 277 278 279 280 280 280 279 279 279 278 278 279 279 280 281 282 283 284 284 284 284 284 285 285 285 285
290 287 284 283 283 282 282 281 280 280 279 279 279 278 275 272 269 267 267 267 265 263 260 258 255 250 242 235 227 217 205 199 200 209 218 223 225 228 232 239 246 254 262 269 275 278 281 281 280 276 272 267 264 263 265 267 269 271 274 276 277 278 279 280 280 279 279 278 278 278 278 279 280 281 282 283 284 284 284 284 284 284 284 284 284 284
289 286 283 281 281 282 283 282 281 280 280 280 279 278 274 270 268 267 266 265 263 261 259 258 255 248 238 228 219 208 198 197 204 214 220 223 227 231 238 245 254 262 269 275 278 280 280 277 272 267 263 260 259 260 262 265 267 270 272 274 276 277 279 279 279 279 279 279 279 279 279 280 281 282 283 284 284 284 284 283 283 283 283 283 283 283
289 286 283 281 280 281 281 281 280 280 280 280 280 278 273 268 266 265 265 263 262 261 261 261 255 244 231 222 214 205 198 200 207 216 220 226 232 239 247 255 263 270 275 278 279 279 276 271 266 261 258 257 257 258 261 264 266 269 270 272 274 276 277 277 278 279 279 279 279 280 280 281 282 283 284 284 284 283 282 282 282 282 282 282 281 280
288 285 282 280 280 280 280 280 279 279 279 280 278 274 269 265 265 265 264 264 265 266 267 262 251 236 225 218 212 205 201 204 209 216 222 229 238 247 256 264 271 275 278 279 278 274 270 265 260 256 255 255 256 258 261 264 266 268 270 271 272 273 274 275 277 278 279 279 280 280 281 281 282 283 283 283 283 282 281 281 281 281 281 280 280 279
286 284 281 280 279 278 278 278 278 277 277 276 273 270 268 267 268 268 269 270 273 274 271 258 239 226 219 215 212 209 205 206 210 216 224 233 244 254 264 271 276 278 279 277 273 267 263 259 256 254 254 255 257 258 261 264 266 268 270 271 272 273 274 275 277 278 278 279 280 280 281 281 282 282 283 282 282 281 281 281 281 280 280 279 278 277
284 282 280 278 277 276 276 275 275 274 273 271 269 269 272 275 276 278 279 282 284 280 266 242 225 218 215 214 213 210 207 206 210 217 227 238 249 260 268 274 277 278 276 272 266 260 256 254 253 255 257 258 259 260 261 264 266 269 270 272 273 274 275 276 277 277 278 279 279 280 281 281 282 282 283 282 282 282 282 281 281 280 279 278 277 276
282 280 278 276 275 274 273 272 271 270 269 269 269 273 279 284 288 290 292 292 289 272 239 220 215 215 215 214 212 208 204 205 211 221 235 246 256 265 271 275 275 273 269 263 258 254 252 252 254 257 260 261 262 262 264 265 268 270 272 273 274 275 275 276 276 277 278 278 279 280 281 283 284 284 283 283 283 283 282 282 281 280 279 277 276 275
280 277 275 273 271 270 269 268 268 267 267 267 270 276 286 293 298 299 298 291 268 228 209 207 209 212 212 210 207 203 201 204 216 231 244 255 264 269 271 272 270 266 261 256 253 251 252 254 256 259 261 263 264 266 267 269 270 272 273 275 276 276 276 276 277 277 278 278 280 282 284 285 286 286 285 285 284 283 282 281 280 279 279 278 277 276
276 273 270 268 266 266 265 265 264 263 263 262 265 273 287 298 303 301 287 240 201 193 196 202 206 208 206 203 200 198 201 211 229 245 255 263 269 271 269 265 262 257 254 251 251 252 255 258 260 261 263 265 267 269 271 273 273 275 276 277 278 278 277 277 277 278 279 280 282 285 286 287 287 286 285 284 282 281 280 280 280 280 279 279 279 278
271 268 265 263 263 264 265 263 261 257 254 250 251 264 284 296 296 272 203 180 179 185 193 200 202 202 199 197 196 199 210 229 246 256 262 267 269 267 263 257 253 251 250 251 253 257 260 262 264 265 266 267 269 271 273 275 276 277 278 279 279 279 278 278 278 280 282 283 285 287 288 288 287 286 284 281 279 278 277 278 278 279 279 279 280 280
267 263 261 262 263 265 265 261 255 246 239 234 235 246 264 266 216 182 174 173 177 184 192 196 196 195 193 193 197 209 229 247 257 262 265 266 264 260 255 251 249 250 252 256 259 263 266 268 270 271 271 271 271 272 274 275 277 279 281 281 281 280 279 279 280 282 284 285 286 287 287 287 286 285 283 280 278 276 275 274 275 275 276 277 278 280
263 261 260 261 263 264 262 256 245 232 223 220 220 217 197 173 170 170 172 173 178 184 190 191 190 188 188 192 205 227 244 254 261 265 264 262 259 254 251 251 253 256 260 265 268 272 274 276 277 277 276 275 274 275 276 278 280 282 283 284 283 282 281 280 281 283 284 286 286 287 286 286 285 284 283 281 279 276 273 271 270 270 272 273 275 277
Height
2932 2932 2932 2933 2932 2931 2930 2931 2932 2931 2930 2931 2932 2933 2933 2932 2931 2931 2930 2930 2930 2930 2930 2929 2928 2928 2928 2929 2929 2929 2929 2928 2927 2927 2925 2924 2924 2925 2925 2925 2925 2926 2926 2926 2926 2927 2927 2927 2927 2927 2927 2927 2927 2928 2928 2928 2928 2927 2927 2927 2926 2925 2924 2924 2923 2923 2922 2922 2921 2921 2920 2918 2917 2916 2915 2914 2912 2911 2909 2907 2906 2905 2903 2902 2901 2899
2927 2927 2927 2927 2927 2926 2924 2925 2926 2926 2926 2927 2927 2928 2928 2927 2926 2926 2926 2926 2926 2926 2926 2925 2924 2924 2924 2924 2925 2925 2925 2925 2924 2923 2922 2920 2920 2920 2921 2921 2922 2922 2922 2922 2922 2923 2923 2923 2923 2923 2923 2924 2924 2924 2924 2924 2924 2924 2923 2923 2922 2921 2920 2920 2920 2919 2919 2918 2917 2917 2916 2915 2914 2912 2912 2910 2909 2907 2906 2904 2902 2901 2900 2898 2897 2896
2924 2922 2921 2922 2922 2921 2920 2920 2920 2921 2922 2922 2922 2923 2923 2922 2922 2921 2921 2921 2922 2922 2922 2921 2920 2919 2919 2920 2921 2921 2921 2921 2920 2919 2918 2917 2916 2916 2917 2917 2918 2918 2918 2918 2918 2918 2918 2918 2919 2919 2919 2920 2920 2920 2920 2920 2920 2920 2919 2919 2918 2917 2916 2916 2916 2916 2915 2914 2914 2913 2912 2911 2910 2909 2908 2907 2905 2903 2902 2900 2899 2897 2896 2895 2894 2892
2919 2917 2917 2917 2917 2916 2916 2916 2915 2916 2916 2917 2917 2917 2918 2917 2916 2916 2917 2917 2917 2917 2917 2917 2917 2916 2916 2916 2917 2917 2917 2917 2917 2916 2914 2913 2912 2912 2912 2912 2913 2914 2914 2914 2914 2914 2914 2915 2915 2916 2916 2916 2916 2916 2916 2916 2916 2916 2916 2915 2914 2913 2912 2912 2912 2912 2911 2911 2910 2909 2908 2907 2906 2905 2904 2902 2901 2900 2898 2897 2895 2894 2892 2892 2890 2889
2914 2913 2912 2914 2913 2912 2911 2912 2911 2911 2911 2911 2912 2912 2912 2912 2912 2912 2912 2912 2912 2912 2913 2913 2913 2912 2912 2912 2912 2912 2913 2913 2912 2911 2910 2908 2908 2908 2908 2908 2909 2909 2909 2910 2911 2911 2911 2911 2912 2912 2912 2912 2912 2912 2912 2912 2912 2912 2912 2911 2910 2909 2908 2908 2908 2908 2907 2907 2906 2905 2904 2903 2902 2901 2900 2899 2897 2896 2894 2893 2892 2890 2889 2888 2887 2886
2910 2909 2909 2909 2909 2907 2907 2907 2907 2907 2906 2906 2906 2906 2906 2906 2907 2907 2907 2907 2907 2908 2908 2908 2909 2908 2908 2907 2907 2908 2908 2908 2908 2907 2906 2904 2904 2905 2905 2905 2905 2905 2905 2906 2907 2907 2908 2908 2908 2909 2909 2908 2908 2908 2908 2909 2908 2908 2908 2907 2906 2905 2905 2904 2904 2904 2903 2903 2902 2901 2900 2899 2898 2897 2896 2895 2893 2892 2891 2889 2888 2887 2886 2884 2883 2882
2906 2906 2905 2905 2904 2903 2903 2903 2902 2902 2902 2901 2901 2901 2901 2901 2902 2902 2902 2902 2903 2903 2903 2903 2904 2904 2904 2903 2903 2903 2903 2903 2903 2902 2902 2901 2901 2901 2902 2902 2902 2901 2901 2902 2903 2903 2904 2904 2904 2905 2905 2905 2905 2905 2905 2905 2905 2904 2904 2903 2902 2901 2901 2901 2900 2900 2899 2899 2898 2897 2897 2896 2895 2894 2892 2891 2890 2888 2887 2886 2884 2883 2882 2881 2880 2879
2901 2901 2902 2901 2899 2899 2899 2898 2898 2899 2898 2897 2896 2896 2896 2896 2896 2897 2897 2898 2898 2898 2899 2899 2899 2899 2900 2900 2899 2899 2898 2898 2897 2897 2897 2897 2897 2897 2898 2898 2897 2897 2898 2898 2898 2898 2899 2900 2900 2901 2901 2901 2901 2901 2901 2901 2901 2900 2900 2899 2898 2897 2897 2897 2897 2896 2896 2895 2894 2893 2893 2892 2891 2890 2889 2887 2886 2885 2883 2882 2881 2880 2879 2878 2877 2876
2897 2897 2896 2897 2896 2895 2893 2894 2894 2895 2895 2894 2892 2892 2891 2891 2891 2892 2893 2893 2893 2894 2894 2894 2894 2895 2895 2896 2895 2895 2894 2893 2893 2893 2894 2894 2894 2894 2894 2893 2893 2893 2894 2894 2894 2894 2895 2896 2897 2897 2897 2897 2898 2898 2897 2897 2897 2896 2896 2895 2894 2894 2893 2893 2892 2892 2892 2891 2890 2890 2889 2888 2887 2886 2885 2883 2882 2881 2880 2879 2877 2877 2875 2874 2873 2873
2893 2893 2892 2892 2892 2891 2890 2889 2889 2890 2891 2891 2889 2887 2887 2886 2886 2887 2887 2888 2889 2890 2890 2890 2890 2890 2891 2891 2891 2890 2890 2889 2889 2889 2889 2889 2890 2890 2890 2889 2889 2889 2890 2890 2890 2891 2891 2892 2892 2893 2893 2894 2894 2894 2894 2893 2893 2892 2892 2891 2890 2890 2889 2889 2889 2888 2888 2887 2887 2886 2885 2884 2883 2882 2881 2880 2879 2877 2877 2875 2874 2873 2872 2871 2870 2869
2888 2888 2888 2887 2887 2887 2886 2884 2884 2885 2886 2886 2885 2884 2883 2882 2882 2883 2882 2883 2884 2885 2885 2885 2886 2886 2886 2886 2886 2885 2885 2884 2885 2885 2885 2885 2885 2885 2885 2885 2884 2885 2886 2886 2887 2887 2888 2888 2888 2889 2890 2890 2891 2890 2890 2889 2889 2888 2887 2887 2886 2886 2885 2885 2885 2884 2884 2883 2883 2882 2881 2880 2879 2878 2877 2876 2875 2874 2873 2872 2871 2870 2869 2868 2867 2866
2884 2884 2883 2883 2883 2883 2882 2881 2880 2880 2880 2881 2880 2879 2878 2879 2879 2879 2878 2878 2879 2881 2881 2881 2881 2881 2881 2880 2880 2880 2880 2880 2880 2880 2881 2881 2881 2881 2881 2880 2880 2880 2881 2882 2882 2884 2885 2885 2885 2885 2886 2887 2887 2886 2886 2886 2885 2885 2884 2883 2883 2882 2882 2882 2881 2881 2880 2880 2879 2878 2877 2877 2875 2874 2873 2872 2871 2870 2869 2868 2867 2866 2865 2865 2864 2863
2881 2880 2879 2879 2879 2879 2879 2878 2876 2875 2874 2875 2875 2874 2874 2875 2876 2876 2875 2874 2875 2876 2876 2876 2875 2875 2875 2875 2875 2875 2875 2875 2876 2876 2876 2876 2876 2876 2876 2876 2875 2876 2877 2877 2878 2880 2881 2881 2881 2882 2882 2882 2882 2882 2882 2882 2881 2881 2880 2880 2879 2879 2878 2878 2877 2877 2877 2876 2875 2875 2874 2872 2872 2871 2870 2868 2867 2867 2865 2864 2863 2863 2862 2861 2861 2860
2877 2876 2875 2874 2874 2874 2875 2875 2873 2870 2869 2870 2870 2870 2870 2871 2872 2871 2871 2870 2870 2871 2872 2871 2870 2870 2870 2870 2870 2870 2870 2871 2871 2871 2871 2871 2872 2872 2872 2871 2871 2872 2873 2873 2875 2876 2877 2877 2877 2878 2878 2878 2878 2878 2878 2877 2877 2877 2876 2876 2875 2875 2875 2874 2874 2873 2873 2872 2872 2871 2870 2869 2868 2867 2866 2865 2864 2863 2862 2861 2860 2859 2859 2858 2857 2857
2873 2872 2871 2870 2869 2870 2870 2871 2869 2867 2866 2865 2866 2866 2867 2867 2867 2867 2867 2866 2866 2867 2867 2866 2865 2865 2865 2865 2865 2865 2866 2866 2866 2867 2867 2867 2867 2867 2867 2867 2867 2867 2868 2869 2870 2871 2872 2873 2873 2873 2874 2874 2874 2874 2873 2873 2873 2873 2872 2872 2872 2872 2871 2871 2870 2870 2869 2869 2868 2867 2866 2865 2864 2863 2862 2861 2860 2859 2858 2857 2857 2856 2855 2855 2854 2853
2869 2868 2867 2866 2865 2865 2866 2866 2866 2864 2863 2862 2862 2862 2862 2862 2862 2862 2862 2862 2862 2862 2862 2860 2860 2860 2860 2860 2861 2861 2861 2861 2862 2862 2862 2862 2862 2863 2863 2862 2862 2862 2863 2864 2866 2866 2867 2868 2868 2869 2869 2870 2869 2869 2869 2869 2869 2869 2868 2868 2868 2868 2867 2867 2867 2866 2866 2865 2864 2863 2862 2861 2860 2860 2859 2857 2857 2856 2855 2854 2853 2852 2852 2851 2851 2850
2864 2864 2863 2862 2861 2860 2861 2861 2861 2861 2860 2860 2859 2858 2858 2857 2857 2857 2857 2857 2857 2857 2856 2855 2855 2855 2854 2855 2856 2857 2857 2857 2857 2857 2858 2857 2857 2858 2858 2858 2857 2857 2858 2860 2861 2862 2862 2863 2864 2865 2865 2865 2865 2864 2865 2865 2865 2865 2865 2865 2864 2864 2864 2863 2863 2862 2862 2861 2860 2859 2858 2857 2857 2856 2855 2854 2853 2852 2852 2851 2850 2849 2849 2848 2847 2847
2860 2859 2858 2858 2857 2857 2857 2857 2856 2856 2856 2856 2856 2855 2854 2854 2854 2853 2853 2852 2852 2852 2850 2850 2850 2850 2850 2850 2850 2852 2853 2852 2852 2852 2853 2852 2852 2853 2854 2853 2853 2853 2854 2855 2856 2857 2858 2859 2860 2860 2860 2860 2860 2861 2861 2861 2861 2861 2861 2861 2860 2860 2860 2860 2859 2859 2858 2857 2856 2855 2855 2854 2853 2852 2852 2851 2850 2849 2848 2847 2847 2846 2846 2845 2844 2844
2855 2855 2855 2854 2853 2853 2853 2853 2852 2851 2851 2851 2851 2851 2851 2850 2850 2849 2848 2848 2847 2847 2846 2846 2846 2846 2846 2846 2846 2847 2848 2848 2848 2847 2847 2847 2848 2848 2849 2849 2849 2849 2850 2851 2852 2853 2854 2855 2855 2856 2856 2856 2856 2857 2857 2857 2857 2857 2857 2857 2857 2857 2857 2856 2856 2855 2854 2853 2852 2852 2851 2850 2850 2849 2848 2847 2847 2846 2845 2844 2844 2843 2842 2842 2841 2841
2851 2850 2850 2850 2849 2849 2849 2848 2848 2848 2847 2847 2847 2847 2846 2845 2845 2845 2844 2843 2843 2843 2842 2842 2842 2841 2842 2842 2842 2842 2844 2844 2844 2843 2842 2843 2843 2843 2844 2845 2845 2845 2846 2846 2847 2849 2850 2850 2851 2851 2852 2852 2852 2853 2853 2853 2853 2853 2853 2853 2853 2853 2853 2852 2852 2851 2850 2850 2849 2848 2847 2847 2846 2846 2845 2844 2843 2842 2842 2841 2841 2840 2839 2839 2838 2838
2847 2846 2846 2847 2847 2846 2844 2844 2844 2844 2844 2843 2843 2842 2842 2841 2841 2840 2839 2840 2840 2839 2839 2838 2837 2837 2838 2838 2837 2837 2839 2840 2840 2839 2839 2839 2839 2838 2839 2840 2840 2841 2842 2842 2844 2845 2846 2846 2847 2847 2848 2848 2849 2849 2850 2850 2850 2850 2850 2850 2850 2850 2849 2849 2848 2847 2847 2846 2845 2845 2844 2844 2843 2842 2842 2841 2840 2839 2839 2838 2837 2837 2837 2836 2836 2835
2843 2842 2842 2843 2843 2842 2841 2840 2840 2840 2840 2840 2840 2839 2838 2837 2837 2836 2836 2836 2836 2835 2834 2833 2833 2833 2833 2833 2832 2832 2834 2834 2834 2834 2835 2835 2834 2834 2835 2836 2836 2837 2837 2839 2840 2841 2841 2842 2842 2843 2844 2845 2845 2846 2846 2846 2847 2847 2847 2847 2847 2846 2846 2845 2844 2844 2843 2842 2842 2842 2841 2840 2840 2839 2838 2838 2837 2837 2836 2835 2835 2834 2833 2833 2832 2832
2841 2839 2838 2838 2838 2838 2837 2837 2836 2836 2836 2836 2836 2835 2835 2835 2834 2832 2832 2832 2831 2831 2830 2830 2829 2829 2829 2828 2828 2828 2829 2829 2830 2830 2831 2830 2830 2830 2831 2832 2832 2832 2833 2835 2836 2836 2837 2838 2839 2840 2841 2841 2842 2842 2843 2843 2843 2843 2843 2843 2843 2842 2842 2841 2841 2840 2840 2839 2839 2838 2838 2837 2837 2836 2835 2835 2834 2833 2833 2832 2832 2831 2831 2830 2830 2830
2836 2835 2834 2834 2833 2833 2833 2832 2832 2832 2832 2832 2831 2831 2831 2831 2831 2830 2829 2828 2828 2827 2827 2826 2825 2824 2824 2824 2824 2825 2825 2825 2826 2826 2826 2826 2826 2826 2827 2828 2828 2829 2830 2831 2832 2832 2833 2834 2836 2837 2837 2838 2838 2839 2839 2840 2840 2840 2840 2840 2839 2839 2838 2837 2837 2837 2836 2836 2835 2835 2834 2834 2833 2833 2832 2832 2831 2830 2830 2829 2829 2828 2828 2827 2827 2827
2832 2830 2830 2829 2829 2829 2828 2828 2827 2827 2827 2828 2827 2827 2827 2827 2827 2827 2826 2825 2825 2824 2822 2822 2821 2820 2819 2820 2820 2820 2820 2821 2821 2821 2821 2822 2822 2822 2823 2824 2825 2825 2826 2827 2828 2829 2830 2832 2832 2833 2833 2834 2835 2836 2836 2836 2837 2837 2836 2836 2835 2835 2834 2834 2833 2833 2832 2832 2832 2831 2831 2830 2830 2830 2829 2828 2828 2827 2827 2826 2826 2825 2825 2825 2824 2824
2827 2826 2826 2825 2825 2824 2824 2824 2823 2823 2823 2824 2824 2824 2823 2824 2823 2823 2822 2822 2820 2820 2819 2817 2816 2815 2815 2816 2816 2816 2816 2817 2817 2817 2817 2818 2818 2818 2820 2821 2821 2822 2823 2823 2825 2826 2827 2828 2829 2830 2830 2831 2832 2832 2832 2833 2833 2833 2832 2832 2832 2831 2831 2830 2830 2829 2829 2829 2828 2828 2827 2827 2827 2827 2826 2826 2825 2824 2824 2823 2823 2822 2822 2822 2822 2822
2823 2822 2822 2821 2821 2820 2820 2820 2819 2819 2819 2820 2820 2820 2820 2820 2820 2819 2818 2817 2816 2816 2815 2813 2812 2812 2812 2812 2812 2812 2812 2812 2812 2813 2814 2814 2814 2815 2816 2817 2818 2819 2820 2821 2822 2824 2825 2826 2826 2826 2827 2827 2828 2829 2829 2829 2829 2829 2829 2828 2828 2827 2827 2827 2826 2826 2826 2825 2825 2825 2824 2824 2824 2824 2823 2823 2822 2822 2821 2821 2820 2819 2819 2819 2819 2819
2818 2818 2817 2817 2817 2816 2816 2815 2815 2815 2816 2816 2817 2817 2816 2816 2816 2815 2813 2813 2812 2812 2811 2809 2809 2808 2808 2808 2808 2808 2808 2808 2809 2810 2811 2811 2811 2812 2813 2814 2815 2816 2817 2819 2820 2821 2822 2822 2823 2823 2824 2824 2825 2825 2826 2826 2826 2825 2825 2825 2824 2824 2823 2823 2823 2822 2822 2822 2822 2822 2822 2821 2821 2821 2821 2820 2819 2819 2818 2818 2817 2817 2817 2816 2816 2816
2814 2814 2813 2813 2812 2812 2812 2812 2811 2811 2812 2812 2812 2812 2812 2812 2812 2811 2810 2810 2809 2808 2806 2805 2805 2805 2804 2804 2805 2805 2805 2805 2806 2807 2807 2808 2808 2809 2811 2812 2812 2813 2815 2816 2817 2818 2819 2819 2820 2820 2821 2821 2822 2822 2822 2822 2822 2822 2821 2821 2821 2820 2820 2820 2819 2819 2819 2819 2819 2819 2819 2818 2818 2818 2818 2817 2817 2816 2816 2815 2814 2814 2814 2813 2813 2813
2809 2809 2809 2809 2808 2808 2808 2808 2808 2808 2808 2808 2809 2808 2807 2807 2807 2807 2807 2806 2805 2804 2803 2802 2802 2802 2801 2802 2802 2802 2802 2802 2803 2803 2804 2804 2805 2806 2808 2809 2810 2811 2812 2813 2814 2815 2816 2817 2817 2817 2817 2818 2818 2819 2818 2818 2818 2818 2818 2817 2817 2817 2817 2816 2816 2816 2816 2816 2816 2816 2816 2816 2816 2815 2815 2814 2814 2813 2812 2812 2811 2811 2811 2810 2810 2810
2805 2805 2804 2804 2805 2805 2804 2805 2805 2805 2805 2804 2805 2805 2804 2804 2804 2803 2803 2802 2801 2800 2800 2800 2799 2798 2798 2798 2798 2798 2798 2799 2800 2800 2800 2801 2802 2803 2805 2807 2808 2809 2810 2811 2812 2812 2813 2814 2814 2814 2814 2815 2815 2815 2815 2815 2815 2814 2814 2814 2813 2813 2813 2813 2813 2813 2813 2813 2813 2813 2813 2813 2812 2812 2812 2811 2811 2810 2810 2809 2808 2808 2807 2807 2807 2807
2801 2801 2800 2800 2800 2801 2801 2801 2801 2801 2801 2801 2801 2801 2801 2800 2800 2799 2798 2797 2797 2797 2797 2796 2796 2795 2795 2795 2795 2795 2795 2796 2797 2797 2797 2798 2799 2801 2803 2804 2806 2807 2807 2808 2809 2809 2810 2811 2811 2811 2811 2812 2812 2812 2812 2812 2811 2811 2810 2810 2810 2810 2810 2809 2809 2810 2810 2810 2810 2810 2810 2810 2809 2809 2809 2808 2807 2807 2807 2806 2805 2805 2804 2804 2803 2803
2797 2797 2797 2796 2796 2797 2797 2797 2797 2797 2797 2797 2797 2797 2797 2797 2796 2795 2794 2794 2793 2793 2793 2793 2792 2792 2792 2792 2792 2792 2792 2793 2794 2794 2794 2795 2797 2799 2801 2802 2803 2804 2805 2805 2806 2807 2807 2808 2808 2808 2808 2809 2808 2808 2808 2808 2807 2807 2807 2807 2806 2806 2806 2806 2806 2807 2807 2807 2807 2807 2807 2807 2806 2806 2805 2805 2805 2804 2803 2803 2802 2802 2801 2800 2800 2800
2794 2793 2793 2792 2792 2792 2793 2793 2793 2793 2793 2794 2794 2794 2793 2792 2792 2791 2790 2790 2790 2790 2790 2790 2789 2789 2789 2789 2789 2789 2789 2790 2791 2792 2792 2793 2795 2797 2799 2800 2801 2802 2802 2802 2803 2804 2804 2805 2806 2806 2806 2806 2805 2805 2804 2804 2803 2803 2803 2803 2803 2803 2802 2803 2803 2803 2804 2804 2804 2804 2804 2803 2803 2802 2802 2802 2801 2801 2800 2800 2799 2798 2798 2797 2797 2797
2791 2790 2789 2789 2789 2789 2789 2789 2789 2790 2790 2790 2790 2789 2789 2788 2787 2787 2787 2786 2787 2787 2787 2786 2786 2786 2786 2786 2786 2786 2787 2787 2788 2789 2791 2792 2794 2796 2797 2798 2798 2799 2799 2800 2801 2801 2802 2802 2803 2803 2803 2802 2802 2801 2801 2800 2800 2800 2800 2800 2800 2800 2800 2800 2801 2801 2801 2801 2801 2801 2801 2800 2800 2799 2799 2799 2798 2798 2797 2797 2796 2795 2795 2794 2794 2794
2787 2787 2786 2786 2786 2786 2786 2786 2786 2787 2787 2786 2786 2785 2785 2784 2783 2783 2783 2783 2783 2783 2783 2783 2783 2783 2783 2783 2783 2784 2785 2786 2787 2788 2790 2791 2793 2794 2795 2795 2796 2797 2797 2797 2798 2799 2799 2800 2800 2800 2800 2799 2799 2798 2797 2797 2797 2797 2797 2798 2797 2797 2797 2798 2798 2798 2798 2798 2798 2798 2798 2797 2797 2797 2796 2796 2795 2795 2794 2794 2793 2792 2792 2792 2791 2791
2784 2783 2783 2783 2783 2783 2783 2782 2782 2782 2782 2782 2782 2781 2781 2780 2780 2779 2779 2780 2780 2780 2780 2780 2780 2780 2781 2781 2782 2782 2783 2785 2786 2787 2789 2790 2791 2792 2792 2793 2794 2794 2795 2795 2796 2796 2797 2797 2797 2797 2797 2796 2796 2795 2795 2795 2795 2795 2795 2795 2795 2795 2795 2795 2796 2796 2796 2796 2795 2795 2795 2794 2794 2793 2793 2793 2792 2792 2791 2791 2790 2789 2789 2788 2788 2788
2781 2780 2780 2780 2780 2779 2779 2779 2779 2779 2779 2778 2778 2777 2777 2777 2776 2776 2776 2776 2776 2776 2776 2777 2777 2778 2778 2779 2780 2781 2782 2783 2784 2786 2787 2788 2789 2789 2790 2791 2791 2792 2792 2793 2793 2794 2794 2794 2794 2794 2794 2793 2793 2792 2792 2792 2792 2792 2792 2792 2792 2792 2792 2792 2793 2793 2793 2793 2792 2792 2792 2792 2791 2791 2791 2790 2790 2789 2788 2788 2787 2787 2786 2786 2786 2785
2777 2777 2776 2776 2776 2776 2776 2775 2775 2775 2775 2774 2774 2773 2773 2773 2773 2773 2773 2772 2773 2773 2773 2774 2774 2775 2776 2777 2778 2779 2781 2782 2783 2784 2786 2786 2787 2787 2788 2789 2789 2790 2790 2790 2791 2791 2791 2791 2791 2791 2791 2791 2790 2790 2790 2790 2790 2789 2789 2789 2789 2789 2790 2790 2790 2790 2790 2790 2790 2789 2789 2789 2789 2788 2788 2787 2787 2786 2786 2785 2784 2784 2783 2783 2783 2782
2774 2773 2773 2773 2772 2772 2772 2772 2772 2772 2771 2771 2770 2770 2769 2769 2769 2769 2769 2769 2770 2770 2771 2771 2772 2773 2774 2776 2777 2779 2780 2781 2782 2783 2784 2785 2786 2786 2786 2787 2787 2787 2787 2788 2788 2788 2789 2788 2788 2788 2788 2788 2788 2788 2788 2787 2787 2787 2787 2787 2787 2787 2787 2787 2787 2787 2788 2787 2787 2787 2787 2786 2786 2786 2785 2784 2784 2783 2782 2782 2781 2781 2780 2780 2780 2780
2771 2770 2770 2770 2769 2769 2769 2769 2768 2768 2768 2767 2767 2766 2766 2766 2766 2766 2766 2767 2767 2767 2768 2769 2770 2771 2773 2775 2777 2778 2779 2780 2781 2782 2783 2783 2784 2784 2784 2784 2785 2785 2785 2786 2786 2786 2786 2786 2786 2786 2786 2787 2787 2786 2786 2786 2786 2786 2786 2786 2785 2785 2785 2785 2785 2785 2785 2785 2784 2784 2784 2783 2783 2783 2782 2782 2781 2780 2780 2779 2778 2778 2777 2777 2777 2777
2767 2767 2767 2767 2767 2766 2766 2766 2766 2765 2765 2764 2764 2763 2763 2762 2762 2763 2763 2764 2765 2765 2766 2767 2768 2770 2772 2774 2776 2777 2778 2779 2780 2781 2781 2782 2782 2782 2782 2782 2782 2783 2783 2783 2783 2783 2784 2784 2784 2784 2784 2785 2785 2784 2784 2784 2784 2784 2784 2784 2784 2784 2783 2783 2783 2782 2782 2782 2782 2781 2781 2781 2780 2780 2779 2779 2778 2777 2777 2776 2776 2775 2775 2775 2775 2774
2764 2764 2764 2763 2763 2763 2763 2763 2763 2763 2762 2762 2762 2761 2760 2760 2760 2760 2761 2762 2763 2763 2764 2765 2767 2768 2771 2773 2774 2776 2777 2777 2778 2779 2779 2780 2780 2780 2780 2780 2781 2781 2781 2781 2781 2781 2781 2782 2782 2782 2783 2783 2783 2783 2782 2782 2782 2782 2782 2782 2782 2782 2782 2781 2781 2780 2780 2779 2779 2778 2778 2778 2777 2777 2777 2776 2775 2775 2774 2773 2773 2773 2772 2772 2772 2772
2762 2761 2761 2761 2761 2761 2761 2761 2760 2760 2760 2760 2759 2758 2757 2757 2757 2758 2759 2760 2761 2761 2762 2763 2765 2767 2770 2772 2773 2775 2776 2776 2777 2777 2777 2778 2778 2778 2778 2778 2778 2779 2779 2779 2779 2779 2779 2779 2780 2780 2781 2781 2781 2781 2781 2780 2780 2780 2781 2781 2781 2780 2780 2779 2778 2778 2777 2777 2776 2776 2775 2775 2775 2774 2774 2773 2773 2772 2771 2771 2771 2770 2770 2770 2770 2769
2759 2758 2758 2758 2758 2758 2758 2758 2758 2758 2757 2757 2756 2755 2755 2755 2756 2757 2757 2758 2758 2759 2761 2762 2765 2767 2769 2771 2772 2774 2774 2775 2775 2775 2776 2776 2777 2777 2777 2777 2777 2777 2777 2777 2777 2777 2777 2777 2778 2778 2779 2779 2779 2779 2779 2779 2779 2779 2779 2779 2779 2778 2778 2777 2776 2776 2775 2774 2773 2773 2773 2772 2772 2772 2772 2771 2770 2770 2769 2768 2768 2768 2768 2767 2767 2767
2756 2756 2756 2756 2756 2756 2756 2755 2755 2755 2755 2754 2754 2753 2753 2753 2754 2755 2755 2756 2757 2758 2760 2762 2764 2766 2768 2770 2772 2772 2773 2773 2773 2774 2774 2774 2775 2775 2775 2775 2775 2775 2775 2775 2775 2775 2775 2776 2776 2777 2777 2777 2777 2777 2777 2777 2777 2777 2777 2777 2777 2776 2776 2775 2774 2773 2772 2772 2771 2770 2770 2770 2770 2769 2769 2769 2768 2767 2767 2767 2766 2766 2765 2765 2765 2765
2753 2753 2753 2753 2753 2753 2753 2753 2752 2752 2752 2752 2752 2751 2751 2752 2752 2753 2754 2755 2756 2757 2759 2761 2763 2766 2768 2769 2770 2771 2771 2772 2772 2772 2772 2772 2773 2773 2773 2773 2773 2773 2773 2773 2773 2773 2773 2774 2774 2775 2775 2776 2775 2775 2775 2775 2775 2775 2775 2775 2775 2774 2773 2772 2772 2771 2770 2769 2768 2768 2767 2767 2767 2767 2767 2767 2766 2766 2765 2764 2764 2763 2763 2763 2762 2762
2751 2750 2750 2750 2750 2750 2750 2750 2750 2750 2750 2750 2750 2750 2750 2750 2751 2752 2752 2754 2755 2757 2759 2761 2763 2765 2767 2768 2769 2769 2770 2770 2770 2771 2771 2771 2771 2771 2771 2771 2771 2771 2771 2771 2771 2772 2772 2772 2773 2773 2774 2774 2774 2773 2773 2773 2773 2773 2773 2772 2772 2772 2771 2770 2769 2768 2767 2767 2766 2765 2765 2765 2764 2764 2764 2764 2764 2764 2763 2762 2762 2761 2761 2760 2760 2760
2748 2748 2747 2748 2748 2748 2748 2747 2747 2747 2748 2748 2748 2748 2749 2749 2750 2751 2752 2753 2755 2757 2758 2761 2763 2765 2766 2767 2767 2768 2768 2768 2769 2769 2769 2769 2769 2769 2769 2769 2769 2769 2769 2769 2770 2770 2770 2771 2771 2772 2772 2772 2772 2772 2772 2771 2771 2771 2771 2770 2770 2769 2768 2767 2767 2766 2765 2764 2764 2763 2762 2762 2762 2762 2762 2762 2762 2762 2762 2761 2760 2759 2758 2757 2757 2757
2745 2745 2745 2745 2746 2746 2746 2745 2745 2745 2746 2746 2747 2747 2747 2748 2749 2750 2751 2753 2754 2757 2759 2761 2763 2764 2765 2765 2766 2766 2767 2767 2767 2768 2768 2768 2768 2768 2768 2768 2768 2768 2768 2768 2768 2769 2769 2769 2770 2770 2770 2770 2770 2770 2770 2770 2769 2769 2768 2768 2767 2767 2766 2765 2764 2763 2762 2762 2761 2761 2760 2760 2760 2760 2760 2760 2760 2760 2760 2759 2758 2757 2755 2754 2754 2754
2743 2743 2743 2743 2743 2744 2744 2743 2743 2743 2744 2744 2745 2746 2747 2747 2748 2750 2751 2752 2754 2757 2759 2761 2762 2763 2763 2764 2765 2765 2766 2766 2766 2766 2766 2767 2767 2766 2766 2766 2766 2767 2767 2767 2767 2767 2767 2767 2768 2768 2768 2768 2768 2768 2768 2767 2767 2767 2766 2765 2765 2764 2763 2762 2762 2761 2760 2760 2759 2758 2758 2757 2757 2757 2757 2757 2757 2757 2757 2757 2756 2754 2753 2752 2751 2751